TimeMDT,TemperatureF,Dew PointF,Humidity,Sea Level PressureIn,VisibilityMPH,Wind Direction,Wind SpeedMPH,Gust SpeedMPH,PrecipitationIn,Events,Conditions,WindDirDegrees,DateUTC
12:55 AM,46.4,30.2,53,30.30,10.0,Calm,Calm,-,N/A,,Mostly Cloudy,0,2012-10-01 06:55:00
1:35 AM,46.4,28.4,50,30.30,10.0,ENE,6.9,-,N/A,,Partly Cloudy,70,2012-10-01 07:35:00
1:55 AM,44.6,30.2,57,30.30,10.0,East,9.2,-,N/A,,Scattered Clouds,80,2012-10-01 07:55:00
2:15 AM,44.6,30.2,57,30.31,10.0,SE,4.6,-,N/A,,Mostly Cloudy,130,2012-10-01 08:15:00
2:35 AM,44.6,30.2,57,30.30,10.0,Calm,Calm,-,N/A,,Scattered Clouds,0,2012-10-01 08:35:00
2:55 AM,44.6,30.2,57,30.30,10.0,Calm,Calm,-,N/A,,Partly Cloudy,0,2012-10-01 08:55:00
3:15 AM,42.8,30.2,61,30.30,10.0,Calm,Calm,-,N/A,,Clear,0,2012-10-01 09:15:00
3:35 AM,42.8,30.2,61,30.30,10.0,Calm,Calm,-,N/A,,Clear,0,2012-10-01 09:35:00
3:55 AM,42.8,28.4,57,30.31,10.0,SE,3.5,-,N/A,,Clear,130,2012-10-01 09:55:00
4:15 AM,41.0,30.2,65,30.31,10.0,East,6.9,-,N/A,,Clear,100,2012-10-01 10:15:00
4:35 AM,39.2,30.2,70,30.32,10.0,East,6.9,-,N/A,,Clear,90,2012-10-01 10:35:00
5:15 AM,39.2,28.4,65,30.33,10.0,Calm,Calm,-,N/A,,Clear,0,2012-10-01 11:15:00
5:55 AM,39.2,28.4,65,30.35,10.0,East,3.5,-,N/A,,Clear,100,2012-10-01 11:55:00
6:15 AM,37.4,28.4,70,30.35,10.0,East,4.6,-,N/A,,Clear,90,2012-10-01 12:15:00
6:35 AM,37.4,28.4,70,30.36,10.0,Calm,Calm,-,N/A,,Clear,0,2012-10-01 12:35:00
6:50 AM,37.4,28.4,70,30.36,10.0,Variable,4.6,-,N/A,,Partly Cloudy,0,2012-10-01 12:50:00
7:50 AM,37.4,28.4,70,30.39,10.0,Variable,4.6,-,N/A,,Clear,0,2012-10-01 13:50:00
8:50 AM,42.8,32.0,66,30.40,10.0,Calm,Calm,-,N/A,,Partly Cloudy,0,2012-10-01 14:50:00
9:50 AM,48.2,32.0,54,30.39,10.0,Calm,Calm,-,N/A,,Partly Cloudy,0,2012-10-01 15:50:00
11:48 AM,62.6,32.0,32,30.34,10.0,Calm,Calm,-,N/A,,Partly Cloudy,0,2012-10-01 17:48:00
12:55 PM,66.2,30.2,26,30.30,10.0,SSE,4.6,-,N/A,,Partly Cloudy,150,2012-10-01 18:55:00
1:52 PM,69.8,30.2,23,30.26,10.0,ESE,5.8,-,N/A,,Partly Cloudy,110,2012-10-01 19:52:00
2:46 PM,71.6,30.2,22,30.24,10.0,SSE,8.1,-,N/A,,Partly Cloudy,150,2012-10-01 20:46:00
4:49 PM,73.4,28.4,19,30.20,10.0,WSW,12.7,-,N/A,,Partly Cloudy,240,2012-10-01 22:49:00
5:51 PM,73.4,28.4,19,30.12,10.0,West,8.1,-,N/A,,Partly Cloudy,260,2012-10-01 23:51:00
6:46 PM,69.8,26.6,20,30.20,10.0,North,3.5,-,N/A,,Partly Cloudy,360,2012-10-02 00:46:00
7:15 PM,66.2,26.6,23,30.21,10.0,SSE,5.8,-,N/A,,Clear,160,2012-10-02 01:15:00
7:35 PM,64.4,28.4,26,30.21,5.0,ESE,4.6,-,N/A,,Clear,120,2012-10-02 01:35:00
7:55 PM,62.6,28.4,27,30.22,10.0,West,3.5,-,N/A,,Clear,260,2012-10-02 01:55:00
8:15 PM,59.0,26.6,29,30.22,10.0,Calm,Calm,-,N/A,,Clear,0,2012-10-02 02:15:00
8:35 PM,57.2,28.4,33,30.24,10.0,Calm,Calm,-,N/A,,Clear,0,2012-10-02 02:35:00
8:55 PM,57.2,28.4,33,30.24,10.0,East,5.8,-,N/A,,Clear,100,2012-10-02 02:55:00
9:15 PM,57.2,28.4,33,30.24,10.0,ENE,8.1,-,N/A,,Clear,70,2012-10-02 03:15:00
9:35 PM,53.6,30.2,41,30.25,10.0,East,8.1,-,N/A,,Clear,80,2012-10-02 03:35:00
9:55 PM,53.6,28.4,38,30.25,10.0,ESE,8.1,-,N/A,,Clear,110,2012-10-02 03:55:00
10:35 PM,50.0,30.2,47,30.26,10.0,Calm,Calm,-,N/A,,Clear,0,2012-10-02 04:35:00
10:55 PM,50.0,28.4,43,30.26,10.0,East,3.5,-,N/A,,Clear,80,2012-10-02 04:55:00
11:15 PM,48.2,28.4,46,30.26,10.0,SE,4.6,-,N/A,,Clear,140,2012-10-02 05:15:00
11:35 PM,46.4,26.6,46,30.26,10.0,Calm,Calm,-,N/A,,Clear,0,2012-10-02 05:35:00
11:55 PM,46.4,28.4,50,30.25,10.0,East,5.8,-,N/A,,Clear,100,2012-10-02 05:55:00